SBIRS GEO-3 (USA 282)

Last updated on Nov. 29, 2020, 6:16 a.m. UTC

1 43162U 18009A   20333.39033934 -.00000277  00000-0  00000+0 0  9995
2 43162   4.6427 317.0555 0002497 278.1711 112.0680  1.00272016 10510
UTC
Height (km)
Latitude
Longitude
Inclination
Orbital Period
UTC large
Height (km)
Speed (km/s)
/
Latitude / Longitude
Inclination (degrees)
Orbital Period (minutes)
Azimuth
Elevation
Range (km)
Doppler Factor
iOS Compass Heading
iOS Angle

Next 30 passes for location: Hong Kong

Rise time Rise Azimuth (degrees) Set time Set Azimuth (degrees) Duration Max altitude (degrees)

No matching passes for this satellites